Location: Unspecified
(39.5237°S, 0.0000°E)
Time: 19:12:14
(UTC+00:00)

DIWATA 2B (PO-101) - Visible Passes

Search period start: 04 April 2026 00:00
Search period end: 14 April 2026 00:00
Orbit: 557 x 576 km, 98.1° (Epoch: 29 March)

Date Brightness Start Highest point End Pass type
(mag) Time Alt. Az. Time Alt. Az. Time Alt. Az.
4 Apr ? 18:37:16 10° NNW 18:40:38 24° W 18:44:02 10° SW visible
5 Apr ? 18:38:06 10° NNW 18:41:26 24° W 18:44:48 10° SW visible
6 Apr ? 18:38:54 10° NNW 18:42:13 23° W 18:45:35 10° SW visible
7 Apr ? 18:39:43 10° NNW 18:43:01 23° W 18:46:22 10° SW visible
8 Apr ? 18:40:31 10° NNW 18:43:48 23° W 18:47:07 10° SW visible
9 Apr ? 18:41:20 10° NNW 18:44:35 22° W 18:47:53 10° SW visible
10 Apr ? 18:42:07 10° NNW 18:45:21 22° W 18:48:37 10° SW visible
11 Apr ? 18:42:55 10° NNW 18:46:08 22° W 18:49:22 10° SW visible
12 Apr ? 18:43:42 10° NW 18:46:54 21° W 18:50:07 10° SW visible
13 Apr ? 18:44:30 10° NW 18:47:40 21° W 18:50:51 10° SW visible
